DAL2054 KMKE-KDTW

Flight info

Callsign DAL2054
Flight time 0h 43m
Altitude 31000
Route SQUIB DUUDA RKCTY2
Aircraft A319/M-SDE3FGHIRWY/LB1

Departure

Time 2026-04-24 02:02
Airport General Mitchell International Airport (KMKE)

Arrival

Time 2026-04-24 02:45
Airport Detroit Metropolitan Wayne County Airport (KDTW)
Time Latitude Longitude Altitude Speed Heading
2026-04-24 01:23 42.94847 -87.89915 685 ft 0 kts 99°
2026-04-24 01:48 42.94849 -87.89931 681 ft 4 kts 99°
2026-04-24 01:48 42.94854 -87.89966 685 ft 3 kts 99°
2026-04-24 01:49 42.94858 -87.89994 681 ft 4 kts 111°
2026-04-24 01:49 42.94869 -87.90029 683 ft 4 kts 110°
2026-04-24 01:49 42.94866 -87.90013 681 ft 4 kts 97°
2026-04-24 01:49 42.94881 -87.89996 685 ft 4 kts 21°
2026-04-24 01:50 42.94903 -87.89989 686 ft 4 kts
2026-04-24 01:50 42.94929 -87.89978 682 ft 4 kts 25°
2026-04-24 01:50 42.94948 -87.89955 687 ft 4 kts 50°
2026-04-24 01:50 42.94954 -87.89943 685 ft 0 kts 54°
2026-04-24 01:54 42.94957 -87.89937 683 ft 3 kts 56°
2026-04-24 01:54 42.94974 -87.89886 688 ft 8 kts 71°
2026-04-24 01:54 42.94988 -87.89807 688 ft 9 kts 89°
2026-04-24 01:54 42.94971 -87.89724 688 ft 10 kts 91°
2026-04-24 01:55 42.94972 -87.89627 688 ft 11 kts 89°
2026-04-24 01:55 42.95024 -87.89578 688 ft 11 kts
2026-04-24 01:55 42.95104 -87.89564 685 ft 13 kts
2026-04-24 01:55 42.95196 -87.89548 686 ft 14 kts
2026-04-24 01:56 42.95293 -87.89532 685 ft 14 kts
2026-04-24 01:56 42.95395 -87.89515 685 ft 15 kts
2026-04-24 01:56 42.95501 -87.89497 684 ft 16 kts
2026-04-24 01:56 42.95602 -87.89480 688 ft 11 kts
2026-04-24 01:57 42.95683 -87.89466 685 ft 12 kts
2026-04-24 01:57 42.95732 -87.89448 688 ft 2 kts 40°
2026-04-24 01:57 42.95734 -87.89446 688 ft 0 kts 44°
2026-04-24 02:00 42.95743 -87.89427 684 ft 6 kts 60°
2026-04-24 02:01 42.95746 -87.89357 688 ft 8 kts 92°
2026-04-24 02:01 42.95727 -87.89310 682 ft 5 kts 160°
2026-04-24 02:01 42.95704 -87.89311 684 ft 4 kts 187°
2026-04-24 02:01 42.95633 -87.89324 686 ft 35 kts 187°
2026-04-24 02:02 42.95110 -87.89413 686 ft 112 kts 187°
2026-04-24 02:02 42.94130 -87.89580 764 ft 162 kts 187°
2026-04-24 02:02 42.93036 -87.89767 1476 ft 157 kts 186°
2026-04-24 02:02 42.91967 -87.89940 2233 ft 153 kts 188°
2026-04-24 02:03 42.89638 -87.90314 3148 ft 192 kts 187°
2026-04-24 02:03 42.88230 -87.90542 3681 ft 216 kts 188°
2026-04-24 02:03 42.86654 -87.90427 4297 ft 241 kts 165°
2026-04-24 02:04 42.85216 -87.89114 5216 ft 262 kts 137°
2026-04-24 02:04 42.84348 -87.86852 6178 ft 283 kts 109°
2026-04-24 02:04 42.84301 -87.84101 7067 ft 301 kts 83°
2026-04-24 02:04 42.84816 -87.81312 8016 ft 304 kts 81°
2026-04-24 02:05 42.85187 -87.78501 8987 ft 306 kts 84°
2026-04-24 02:05 42.85480 -87.75616 9944 ft 308 kts 85°
2026-04-24 02:05 42.85744 -87.72641 10476 ft 327 kts 85°
2026-04-24 02:05 42.86017 -87.69492 11069 ft 339 kts 85°
2026-04-24 02:06 42.86303 -87.66281 11905 ft 344 kts 85°
2026-04-24 02:06 42.86603 -87.63027 12744 ft 348 kts 84°
2026-04-24 02:06 42.86917 -87.59735 13589 ft 352 kts 84°
2026-04-24 02:06 42.87241 -87.56410 14307 ft 356 kts 84°
2026-04-24 02:07 42.87570 -87.53048 15040 ft 360 kts 84°
2026-04-24 02:07 42.87899 -87.49644 15761 ft 364 kts 84°
2026-04-24 02:07 42.88228 -87.46202 16458 ft 369 kts 84°
2026-04-24 02:07 42.88559 -87.42717 17172 ft 372 kts 84°
2026-04-24 02:08 42.88892 -87.39196 17863 ft 377 kts 84°
2026-04-24 02:08 42.89230 -87.35632 18515 ft 381 kts 84°
2026-04-24 02:08 42.89571 -87.32035 19113 ft 384 kts 83°
2026-04-24 02:08 42.89915 -87.28400 19737 ft 388 kts 83°
2026-04-24 02:09 42.90263 -87.24748 20373 ft 391 kts 83°
2026-04-24 02:09 42.90613 -87.21050 20969 ft 395 kts 83°
2026-04-24 02:09 42.90964 -87.17320 21593 ft 398 kts 83°
2026-04-24 02:09 42.91316 -87.13554 22183 ft 402 kts 83°
2026-04-24 02:10 42.91666 -87.09752 22812 ft 405 kts 83°
2026-04-24 02:10 42.92017 -87.05921 23397 ft 409 kts 83°
2026-04-24 02:10 42.92396 -87.02056 23894 ft 412 kts 82°
2026-04-24 02:10 42.92808 -86.98220 24389 ft 415 kts 81°
2026-04-24 02:11 42.93247 -86.94310 24865 ft 418 kts 81°
2026-04-24 02:11 42.93692 -86.90386 25392 ft 419 kts 81°
2026-04-24 02:11 42.94130 -86.86437 25882 ft 422 kts 81°
2026-04-24 02:11 42.94562 -86.82458 26343 ft 425 kts 81°
2026-04-24 02:12 42.94987 -86.78454 26788 ft 428 kts 81°
2026-04-24 02:12 42.95410 -86.74419 27227 ft 431 kts 81°
2026-04-24 02:12 42.95833 -86.70358 27648 ft 434 kts 81°
2026-04-24 02:12 42.96262 -86.66259 28071 ft 437 kts 81°
2026-04-24 02:13 42.96693 -86.62130 28492 ft 441 kts 81°
2026-04-24 02:13 42.97128 -86.57971 28920 ft 444 kts 81°
2026-04-24 02:13 42.97564 -86.53784 29322 ft 447 kts 80°
2026-04-24 02:13 42.98005 -86.49558 29699 ft 451 kts 80°
2026-04-24 02:14 42.98447 -86.45295 30060 ft 454 kts 80°
2026-04-24 02:14 42.98889 -86.41017 30402 ft 457 kts 80°
2026-04-24 02:14 42.99184 -86.38166 30631 ft 459 kts 80°
2026-04-24 02:14 42.99628 -86.33841 30808 ft 460 kts 81°
2026-04-24 02:15 43.00061 -86.29575 30845 ft 445 kts 81°
2026-04-24 02:15 43.00474 -86.25471 30848 ft 429 kts 81°
2026-04-24 02:15 43.01405 -86.16227 30849 ft 419 kts 80°
2026-04-24 02:16 43.02075 -86.09616 30850 ft 419 kts 80°
2026-04-24 02:16 43.02865 -86.01719 30850 ft 419 kts 80°
2026-04-24 02:17 43.03641 -85.93816 30850 ft 419 kts 81°
2026-04-24 02:17 43.04403 -85.85967 30851 ft 419 kts 81°
2026-04-24 02:18 43.05172 -85.78066 30851 ft 419 kts 81°
2026-04-24 02:18 43.05940 -85.70169 30849 ft 419 kts 81°
2026-04-24 02:19 43.06703 -85.62245 30587 ft 423 kts 81°
2026-04-24 02:19 43.07095 -85.58157 30354 ft 444 kts 81°
2026-04-24 02:19 43.07503 -85.53900 30125 ft 457 kts 81°
2026-04-24 02:20 43.07914 -85.49567 29880 ft 460 kts 81°
2026-04-24 02:20 43.08321 -85.45226 29599 ft 460 kts 81°
2026-04-24 02:20 43.08726 -85.40899 29332 ft 458 kts 81°
2026-04-24 02:20 43.09130 -85.36582 28887 ft 456 kts 81°
2026-04-24 02:21 43.09531 -85.32298 28423 ft 452 kts 81°
2026-04-24 02:21 43.09926 -85.28047 27964 ft 448 kts 81°
2026-04-24 02:21 43.10316 -85.23837 27498 ft 444 kts 81°
2026-04-24 02:21 43.10703 -85.19658 27026 ft 440 kts 81°
2026-04-24 02:22 43.11083 -85.15521 26551 ft 437 kts 81°
2026-04-24 02:22 43.11460 -85.11413 26069 ft 433 kts 81°
2026-04-24 02:22 43.11831 -85.07343 25583 ft 429 kts 81°
2026-04-24 02:22 43.12196 -85.03312 25092 ft 425 kts 82°
2026-04-24 02:23 43.12551 -84.99365 24583 ft 422 kts 82°
2026-04-24 02:23 43.12904 -84.95396 24070 ft 419 kts 82°
2026-04-24 02:23 43.13231 -84.91451 23559 ft 416 kts 85°
2026-04-24 02:23 43.13087 -84.87504 22988 ft 415 kts 99°
2026-04-24 02:24 43.12273 -84.83736 22583 ft 411 kts 114°
2026-04-24 02:24 43.10870 -84.80356 22274 ft 408 kts 124°
2026-04-24 02:24 43.09268 -84.77163 21940 ft 406 kts 125°
2026-04-24 02:24 43.07673 -84.73994 21614 ft 404 kts 125°
2026-04-24 02:25 43.06081 -84.70838 21275 ft 402 kts 125°
2026-04-24 02:25 43.04495 -84.67695 20942 ft 399 kts 125°
2026-04-24 02:25 43.02922 -84.64578 20626 ft 397 kts 125°
2026-04-24 02:25 43.01357 -84.61475 20292 ft 395 kts 125°
2026-04-24 02:26 42.99802 -84.58391 19964 ft 393 kts 125°
2026-04-24 02:26 42.98253 -84.55331 19641 ft 391 kts 125°
2026-04-24 02:26 42.96706 -84.52281 19319 ft 389 kts 125°
2026-04-24 02:26 42.95170 -84.49256 19008 ft 387 kts 125°
2026-04-24 02:27 42.93647 -84.46244 18670 ft 385 kts 124°
2026-04-24 02:27 42.92149 -84.43231 18323 ft 382 kts 124°
2026-04-24 02:27 42.90669 -84.40220 17957 ft 380 kts 124°
2026-04-24 02:27 42.89207 -84.37229 17639 ft 377 kts 124°
2026-04-24 02:28 42.87751 -84.34264 17337 ft 376 kts 124°
2026-04-24 02:28 42.86296 -84.31318 16997 ft 374 kts 124°
2026-04-24 02:28 42.84841 -84.28385 16677 ft 371 kts 124°
2026-04-24 02:28 42.83399 -84.25487 16342 ft 368 kts 125°
2026-04-24 02:29 42.81967 -84.22614 16017 ft 365 kts 125°
2026-04-24 02:29 42.80541 -84.19757 15685 ft 363 kts 125°
2026-04-24 02:29 42.79125 -84.16925 15376 ft 361 kts 125°
2026-04-24 02:29 42.77718 -84.14115 15056 ft 358 kts 125°
2026-04-24 02:30 42.76322 -84.11322 14736 ft 356 kts 125°
2026-04-24 02:30 42.74938 -84.08543 14421 ft 353 kts 125°
2026-04-24 02:30 42.73565 -84.05787 14124 ft 350 kts 125°
2026-04-24 02:30 42.72227 -84.03102 13990 ft 337 kts 125°
2026-04-24 02:31 42.70933 -84.00506 13843 ft 327 kts 125°
2026-04-24 02:31 42.69669 -83.97967 13520 ft 322 kts 124°
2026-04-24 02:31 42.68634 -83.95291 13001 ft 320 kts 112°
2026-04-24 02:31 42.68018 -83.92391 12560 ft 320 kts 105°
2026-04-24 02:32 42.67479 -83.89459 12214 ft 318 kts 105°
2026-04-24 02:32 42.66939 -83.86553 11884 ft 317 kts 105°
2026-04-24 02:32 42.66394 -83.83663 11538 ft 315 kts 105°
2026-04-24 02:32 42.65847 -83.80781 11221 ft 314 kts 106°
2026-04-24 02:33 42.65300 -83.77916 10895 ft 313 kts 106°
2026-04-24 02:33 42.64755 -83.75060 10566 ft 311 kts 105°
2026-04-24 02:33 42.64220 -83.72244 10359 ft 303 kts 106°
2026-04-24 02:33 42.63711 -83.69562 10240 ft 292 kts 106°
2026-04-24 02:34 42.63212 -83.66939 10120 ft 282 kts 106°
2026-04-24 02:34 42.62728 -83.64399 9977 ft 275 kts 106°
2026-04-24 02:34 42.62238 -83.61899 9652 ft 273 kts 107°
2026-04-24 02:34 42.61718 -83.59417 9291 ft 273 kts 108°
2026-04-24 02:35 42.61189 -83.56953 8938 ft 271 kts 108°
2026-04-24 02:35 42.60655 -83.54486 8490 ft 274 kts 108°
2026-04-24 02:35 42.60117 -83.51998 8068 ft 275 kts 108°
2026-04-24 02:35 42.59581 -83.49519 7722 ft 272 kts 108°
2026-04-24 02:36 42.59053 -83.47071 7439 ft 268 kts 108°
2026-04-24 02:36 42.58531 -83.44650 7098 ft 266 kts 109°
2026-04-24 02:36 42.58014 -83.42248 6751 ft 265 kts 109°
2026-04-24 02:36 42.57498 -83.39844 6388 ft 264 kts 109°
2026-04-24 02:37 42.56997 -83.37503 6274 ft 253 kts 109°
2026-04-24 02:37 42.56523 -83.35251 6111 ft 244 kts 109°
2026-04-24 02:37 42.56067 -83.33042 6007 ft 243 kts 108°
2026-04-24 02:37 42.55569 -83.30854 6000 ft 241 kts 118°
2026-04-24 02:38 42.54572 -83.29147 5769 ft 231 kts 146°
2026-04-24 02:38 42.53253 -83.27917 5432 ft 229 kts 152°
2026-04-24 02:38 42.51903 -83.26767 5111 ft 228 kts 152°
2026-04-24 02:38 42.50557 -83.25631 4800 ft 227 kts 152°
2026-04-24 02:39 42.49221 -83.24506 4493 ft 226 kts 152°
2026-04-24 02:39 42.47886 -83.23386 4191 ft 225 kts 152°
2026-04-24 02:39 42.46567 -83.22285 4023 ft 222 kts 153°
2026-04-24 02:39 42.45160 -83.21503 4004 ft 218 kts 172°
2026-04-24 02:40 42.43661 -83.21449 4006 ft 214 kts 192°
2026-04-24 02:40 42.42273 -83.22095 4006 ft 211 kts 210°
2026-04-24 02:40 42.40984 -83.23052 3998 ft 211 kts 211°
2026-04-24 02:40 42.39692 -83.24011 4001 ft 211 kts 211°
2026-04-24 02:41 42.38453 -83.24928 3978 ft 197 kts 211°
2026-04-24 02:41 42.37266 -83.25808 3816 ft 192 kts 211°
2026-04-24 02:41 42.36115 -83.26661 3596 ft 191 kts 210°
2026-04-24 02:41 42.34954 -83.27522 3358 ft 190 kts 210°
2026-04-24 02:42 42.33803 -83.28373 3145 ft 187 kts 210°
2026-04-24 02:42 42.32673 -83.29209 2874 ft 183 kts 210°
2026-04-24 02:42 42.31568 -83.30025 2636 ft 178 kts 210°
2026-04-24 02:42 42.30496 -83.30818 2405 ft 172 kts 210°
2026-04-24 02:43 42.29487 -83.31563 2202 ft 156 kts 210°
2026-04-24 02:43 42.28598 -83.32219 2001 ft 137 kts 210°
2026-04-24 02:43 42.27794 -83.32812 1833 ft 128 kts 209°
2026-04-24 02:43 42.27022 -83.33383 1667 ft 125 kts 208°
2026-04-24 02:44 42.26265 -83.33941 1500 ft 124 kts 208°
2026-04-24 02:44 42.25506 -83.34500 1337 ft 124 kts 207°
2026-04-24 02:44 42.24745 -83.35062 1171 ft 125 kts 206°
2026-04-24 02:44 42.23980 -83.35628 1009 ft 126 kts 207°
2026-04-24 02:45 42.23211 -83.36198 830 ft 126 kts 206°
2026-04-24 02:45 42.22444 -83.36762 677 ft 125 kts 206°
2026-04-24 02:45 42.21747 -83.37275 645 ft 94 kts 209°
2026-04-24 02:45 42.21326 -83.37585 647 ft 39 kts 208°
2026-04-24 02:46 42.21154 -83.37705 647 ft 26 kts 206°
2026-04-24 02:46 42.21004 -83.37756 647 ft 18 kts 175°
2026-04-24 02:46 42.20903 -83.37700 647 ft 14 kts 120°
2026-04-24 02:46 42.20952 -83.37607 647 ft 14 kts 29°
2026-04-24 02:47 42.21037 -83.37544 648 ft 12 kts 28°
2026-04-24 02:47 42.21045 -83.37449 648 ft 12 kts 120°
2026-04-24 02:47 42.21001 -83.37342 648 ft 14 kts 118°
2026-04-24 02:47 42.20952 -83.37222 648 ft 16 kts 119°
2026-04-24 02:48 42.20889 -83.37068 647 ft 21 kts 118°
2026-04-24 02:48 42.20818 -83.36893 647 ft 22 kts 118°
2026-04-24 02:48 42.20745 -83.36712 646 ft 19 kts 118°
2026-04-24 02:48 42.20729 -83.36592 647 ft 13 kts 39°
2026-04-24 02:49 42.20817 -83.36530 647 ft 15 kts 28°
2026-04-24 02:49 42.20908 -83.36463 646 ft 14 kts 29°
2026-04-24 02:49 42.20999 -83.36395 647 ft 17 kts 29°
2026-04-24 02:49 42.21117 -83.36308 646 ft 22 kts 28°
2026-04-24 02:50 42.21256 -83.36205 647 ft 22 kts 28°
2026-04-24 02:50 42.21387 -83.36110 648 ft 20 kts 28°
2026-04-24 02:50 42.21498 -83.36027 647 ft 13 kts 29°
2026-04-24 02:50 42.21540 -83.35936 647 ft 11 kts 89°
2026-04-24 02:51 42.21541 -83.35825 647 ft 14 kts 88°
2026-04-24 02:51 42.21544 -83.35662 647 ft 19 kts 88°
2026-04-24 02:51 42.21547 -83.35494 647 ft 17 kts 89°
2026-04-24 02:51 42.21549 -83.35346 647 ft 15 kts 88°
2026-04-24 02:52 42.21548 -83.35233 649 ft 9 kts 110°
2026-04-24 02:52 42.21498 -83.35212 647 ft 7 kts 178°
2026-04-24 02:52 42.21450 -83.35222 647 ft 8 kts 203°
2026-04-24 02:52 42.21380 -83.35266 648 ft 13 kts 205°
2026-04-24 02:53 42.21302 -83.35315 648 ft 11 kts 206°
2026-04-24 02:53 42.21238 -83.35361 648 ft 10 kts 209°
2026-04-24 02:53 42.21184 -83.35401 648 ft 8 kts 208°
2026-04-24 02:53 42.21139 -83.35434 648 ft 7 kts 209°
2026-04-24 02:54 42.21102 -83.35468 648 ft 5 kts 233°
2026-04-24 02:54 42.21114 -83.35507 648 ft 4 kts 301°
2026-04-24 02:54 42.21120 -83.35524 648 ft 0 kts 298°